NOAA 16 DEB, 42357

Orbit data source: Space-Track

NOAA 16 DEB, 42357 is space debris in SSO originally from a launch on Thu, 21 Sep 2000 UTC launched from the Air Force Western Test Range (AFWTR). Debris objects in space refer to the collection of defunct objects orbiting the Earth. Examples of debris include non-operational satellites, rocket bodies, and fragments generated from explosions, collisions, or faulty payload assembly.

Loading next visibility...
Identifier
42357, 2000-055QZ
Orbit
SSO
Country
Flag of USUS
Related business
Manufacturer
Unknown
Mission
Spacecraft
Bus & Motor
Unknown
Mass
Unknown
Launch date (UTC)
2000-09-21 (25 years ago)
Launch vehicle
Unknown
Launch site
Air Force Western Test Range (AFWTR)
Object type
Payload
Rocket body
Debris
Shape & HBR
Unknown shape, 0.1 m
Radar Cross Section
Small (<0.1 m²)

Expand to show TLE details & history
Last TLE update: 17 hours ago

TLE from 17 hours ago
0 NOAA 16 DEB
1 42357U 00055QZ  25286.77570822  .00042980  00000-0  82606-2 0  9999
2 42357  98.8089  49.0800 0006388 115.1803 245.0060 14.63435674501433
Epoch: 2025-10-13T18:37Z
TLE epoch observation values (Epoch: 2025-10-13T18:37:01.190Z)
Latitude
-0.00002°
Longitude
107.2514°
Altitude
686.981 km
Speed
7.512 km/s
True Right ascension
03h 16m 19s
True Declination
0° 00' 00"
Sunlit
Object was in full shadow at epoch
Visualization orbit readout
Latitude
Unknown
Longitude
Unknown
Altitude
Unknown
Speed
Unknown
Apparent Right ascension
Unknown
Apparent Declination
Unknown
Sunlit
N/A
Visualization observer readout
Local Sidereal Time
06:22:31
Azimuth
Unknown
Elevation
Unknown
Doppler factor
Unknown
Orbital elements
Apogee altitude
683.716 km
Perigee altitude
674.7 km
Semi-major axis
7,057.345 km
Eccentricity
0.00064
Inclination
98.8089°
RAAN
49.08°
Arg. of periapsis
115.1803°
True anomaly
244.93968°
Mean anomaly
245.006°
Eccentric anomaly
244.97284°
Mean motion
3.66084 °/min
Orbital period
98.34 mins
BSTAR
0.0082606
Loading maneuver chart data...
Computing Atmospheric mass density...
Loading historical data...
Loading historical data...
Loading historical data...
Loading historical data...
Loading historical data...
Loading historical data...
Loading historical data...

Documentation

Showing up to 5 results
|